User: anonymous   Login
Location: ????????
(55.8351°N, 38.7040°E)
Time: 17:41:54
(UTC+00:00)
Language:

Cosmos 2333 Rocket - Orbit

View from above orbital plane
View from above orbital plane
View from above satellite
View from above satellite

Ground track
Ground track

The orbit data is extracted from the following two-line orbital elements,

1 24298U 96051B   24172.97823144 -.00000236  00000-0 -10095-3 0  9991
2 24298  70.8037  60.7624 0017086 334.0909  25.9354 14.12473428433416
Epoch (UTC): 20 June 2024 23:28:39
Eccentricity: 0.0017086
inclination: 70.8037°
perigee height: 838 km
apogee height: 863 km
right ascension of ascending node: 60.7624°
argument of perigee: 334.0909°
revolutions per day: 14.12473428
mean anomaly at epoch: 25.9354°
orbit number at epoch: 43341

The dashed part of the orbit path shows where the satellite is in the earth's shadow,  

DLR